655  
ASUS42 KRAH 310510  
RWRRAH  
NORTH CAROLINA WEATHER ROUNDUP  
NATIONAL WEATHER SERVICE RALEIGH NC  
100 AM EDT WED AUG 31 2016  
 
NOTE: "FAIR" INDICATES FEW OR NO CLOUDS BELOW 12,000 FEET WITH NO  
SIGNIFICANT WEATHER AND/OR S TO VISIBILITY
.  
 
NCZ001-053-055-056-065-067-310600-  
WESTERN NORTH CAROLINA  
 
CITY SKY/WX TMP DP RH WIND PRES REMARKS
 
ASHEVILLE CLEAR 69 64 84 CALM 30.15S  
JEFFERSON CLEAR 65 63 94 CALM 30.20S  
MORGANTON CLEAR 69 68 98 CALM 30.13F  
HICKORY CLEAR 72 70 93 CALM 30.07F  
RUTHERFORDTON N/A 73 69 89 N3 30.08S  
MOUNT AIRY CLEAR 73 70 91 CALM 30.10S  
BOONE CLEAR 62 62 100 CALM 30.21S FOG  

 
 
NCZ021-022-025-041-071-084-088-310600-  
CENTRAL NORTH CAROLINA  
 
CITY SKY/WX TMP DP RH WIND PRES REMARKS
 
CHARLOTTE PTCLDY 77 66 68 CALM 30.05F  
GREENSBORO CLOUDY 77 70 79 CALM 30.05S  
WINSTON-SALEM MOCLDY 75 69 81 CALM 30.07S  
RALEIGH-DURHAM MOCLDY 78 69 73 SE6 30.04S  
FORT BRAGG MOCLDY 77 71 81 CALM 30.02F  
FAYETTEVILLE MOCLDY 77 71 82 CALM 30.02S  
BURLINGTON CLOUDY 72 70 93 CALM 30.05S  
LAURINBURG MOCLDY 73 71 93 NE5 30.03S  

 
 
NCZ011-015-027-028-043-044-047-080-103-310600-  
NORTHEASTERN NORTH CAROLINA  
 
CITY SKY/WX TMP DP RH WIND PRES REMARKS
 
ROCKY MT-WILSO PTCLDY 73 72 96 CALM 30.03S  
GREENVILLE FOG 73 73 100 CALM 30.03S VSB 1  
WASHINGTON CLEAR 73 72 96 CALM 30.01S  
ELIZABETH CITY PTCLDY 77 75 93 NE7 30.00F  
MANTEO CLEAR 78 76 92 NE7 29.99S  
CAPE HATTERAS CLEAR 78 74 87 NE5 29.97S  

 
 
NCZ078-087-090-091-093-098-101-310600-  
SOUTHEASTERN NORTH CAROLINA  
 
CITY SKY/WX TMP DP RH WIND PRES REMARKS
 
LUMBERTON CLOUDY 78 74 87 CALM 30.01F  
GOLDSBORO MOCLDY 75 75 100 CALM 30.01F  
KINSTON MOCLDY 74 73 96 CALM 30.02F  
KENANSVILLE CLEAR 72 72 100 CALM 30.02F  
NEW BERN CLEAR 75 73 93 CALM 30.01F FOG  
CHERRY POINT PTCLDY 78 75 90 NW6 30.00F  
BEAUFORT CLEAR 77 76 96 N5 29.98F  
JACKSONVILLE CLEAR 75 73 93 CALM 30.00F  
WILMINGTON PTCLDY 75 74 96 CALM 30.01S  

 
 
 
 
CLICK HERE TO GO TO PREVIOUS BULLETINS.

The Nexlab NC Page Main Text Page